Regional Weather Roundup
Issued by NWS

Home | Current Version | Previous Version | Graphics & Text | Print | Product List | Glossary On
Versions: 1 2 3 4 5 6 7 8 9 10 11 12 13 14 15 16 17 18 19 20 21 22 23 24 25 26 27 28 29 30 31 32 33 34 35 36 37 38 39 40 41 42 43 44 45 46 47 48 49 50
000
ASUS43 KLOT 301903
RWRIL

ILLINOIS REGIONAL WEATHER ROUNDUP
NATIONAL WEATHER SERVICE CHICAGO/ROMEOVILLE IL
200 PM CDT MON MAY 30 2016

NOTE: "FAIR" INDICATES FEW OR NO CLOUDS BELOW 12,000 FEET WITH NO
SIGNIFICANT WEATHER AND/OR OBSTRUCTIONS TO VISIBILITY.

* THESE STATIONS ARE NOT UNDER NWS QUALITY CONTROL. THEY ALSO MAY NOT
  REPORT WEATHER SUCH AS PRECIPITATION OR FOG.

ILZ001-002-007-009-015-016-024-302000-
NORTHWEST ILLINOIS

CITY           SKY/WX    TMP DP  RH WIND       PRES   REMARKS
MOLINE         SUNNY     85  57  38 CALM      30.00F HX  84
STERLING*      SUNNY     84  58  40 NW7       30.01F HX  83
$$

ILZ003-004-008-010-011-017-018-302000-
NORTH CENTRAL ILLINOIS

CITY           SKY/WX    TMP DP  RH WIND       PRES   REMARKS
ROCKFORD       MOSUNNY   85  54  34 N14G21    30.02F HX  83
FREEPORT*      SUNNY     81  53  37 NW12      30.02F HX  80
ROCHELLE*      SUNNY     83  58  42 NW10      30.01S HX  82
DE KALB*       SUNNY     83  60  45 NW14G20   30.01F HX  83
$$

ILZ005-006-012>014-019>023-302000-
NORTHEAST ILLINOIS

CITY           SKY/WX    TMP DP  RH WIND       PRES   REMARKS
CHICAGO-OHARE  MOSUNNY   84  57  39 N8        29.98F HX  83
CHICAGO-MIDWAY MOSUNNY   84  56  38 NW13G23   29.98F HX  83
AURORA         MOSUNNY   86  60  41 W14       29.99F HX  86
LANSING*       MOSUNNY   85  56  36 NW8G20    30.00S HX  84
WAUKEGAN       MOSUNNY   76  60  57 E8        29.99F
DUPAGE AIRPORT MOSUNNY   85  59  41 NW10      29.99F HX  84
WHEELING       MOSUNNY   83  56  39 NW8       29.99F HX  82
NORTHERLY ISL    N/A     70  59  68 E2          N/A
NORTHERLY ISL    N/A     70  59  68 E2          N/A
$$

LMZ740>746-302000-
SOUTHERN LAKE MICHIGAN

STATION/POSITION SKY/WX   TEMP    WIND        PRES    VSBY  WAVE
                          AIR SEA DIR/SP/G                  HT/PER
                          (F)     (DEG/KT/KT) (MB)    (MI)  (FT/S)
SOUTHERN BUOY              58 55  170/  2/  4 1016.7          0
WILMETTE HARBOR            63 57  110/  6/  6   N/A           0
HARRISON CRIB              69      80/ 12/ 12   N/A
BURNHAM HARBOR             69      30/  2/  5   N/A
CALUMET HARBOR             68      50/  9/ 12 1015.8F
BURNS HARBOR               68      70/ 10/ 10 1016.6F
MICHIGAN CITY              65      30/  9/ 10   N/A
MICHIGAN CITY 6N           65 63   40/  6/  8   N/A           1
ST. JOSEPH                 65 65  320/  2/  2   N/A           1
$$

ILZ025>027-034>036-040-047-049-050-058-095>099-302000-
WEST-CENTRAL ILLINOIS

CITY           SKY/WX    TMP DP  RH WIND       PRES   REMARKS
QUINCY         CLOUDY    85  63  47 SW6       30.02F HX  86
MACOMB*        MOSUNNY   84  57  40 CALM      30.04F HX  83
PITTSFIELD*    MOSUNNY   84  64  51 CALM      30.04F HX  86
$$

ILZ028>032-037-038-041>044-048-051>054-059>061-302000-
CENTRAL ILLINOIS

CITY           SKY/WX    TMP DP  RH WIND       PRES   REMARKS
BLOOMINGTON    MOSUNNY   85  63  47 NW10      30.04F HX  86
DECATUR        LGT RAIN  80  67  64 SW7       30.02F HX  82
PEORIA         SUNNY     87  57  35 W6        30.01F HX  86
LINCOLN*       MOSUNNY   87  62  43 NW6       30.02F HX  87
SPRINGFIELD    MOSUNNY   88  61  40 NW8       30.02F HX  88
TAYLORVILLE    NOT AVBL
$$

ILZ033-039-045-046-055>057-062-063-302000-
EAST-CENTRAL ILLINOIS

CITY           SKY/WX    TMP DP  RH WIND       PRES   REMARKS
CHAMPAIGN      MOSUNNY   88  53  30 VRB5      30.02F HX  86
MATTOON        PTSUNNY   84  59  42 CALM      30.02F HX  84
$$

ILZ079-100>102-302000-
SOUTHWEST ILLINOIS

CITY           SKY/WX    TMP DP  RH WIND       PRES   REMARKS
ALTON          MOSUNNY   86  57  37 CALM      30.03F HX  85
CAHOKIA*       SUNNY     89  56  32 SE6       30.02F HX  87
SPARTA*        CLOUDY    84  63  48 CALM      30.05F HX  85
$$

ILZ064>066-069>071-074>076-080>082-084>086-088>090-092>094-302000-
SOUTH-CENTRAL ILLINOIS

CITY           SKY/WX    TMP DP  RH WIND       PRES   REMARKS
CARBONDALE     MOSUNNY   86  57  37 N5        30.04F HX  85
CAIRO*         MOSUNNY   86  58  39 SE5       30.04F HX  85
EFFINGHAM*     MOSUNNY   85  63  46 SW7       30.05F HX  86
MARION         PTSUNNY   86  61  42 CALM      30.05F HX  86
MT. VERNON     MOSUNNY   84  64  51 CALM      30.05F HX  86
SALEM*         PTSUNNY   86  59  40 CALM      30.05S HX  85
$$

ILZ067-068-072-073-078-083-087-091-302000-
SOUTHEAST ILLINOIS

CITY           SKY/WX    TMP DP  RH WIND       PRES   REMARKS
LAWRENCEVILLE  SUNNY     87  58  37 NW6       30.04F HX  86
FLORA*         MOSUNNY   87  60  40 N3        30.04F HX  86
HARRISBURG*    SUNNY     85  64  50 CALM      30.05S HX  86
ROBINSON*      SUNNY     85  60  44 N5        30.05F HX  85
CARMI*         MOSUNNY   84  61  45 CALM      30.04S HX  85
$$

ABBREVIATIONS USED IN REMARKS
   TC - TEMPERATURE IN CELSIUS
  WCI - WIND CHILL INDEX
   HX - HEAT INDEX
  VSB - VISIBILITY
$$





USA.gov is the U.S. government's official web portal to all federal, state and local government web resources and services.